RADUGA-1 7 1 28194U 04010A 21056.66048615 .00000094 00000-0 00000+0 0 9991 2 28194 11.4158 35.1191 0002538 304.2129 71.4964 1.00286799 61971 SL-12 R/B(2) 1 28256U 04010F 21056.53187262 .00000002 00000-0 00000-0 0 9998 2 28256 11.4347 35.3389 0030635 328.2089 225.3882 1.00095804 61267